Tracking 18980 objects as of 19-Feb-2018
HD Live streaming from Space Station
objects crossing your sky now

BREEZE-M R/B

Track BREEZE-M R/B now!


NORAD ID: 27633
Int'l Code: 2002-062B
Perigee: 8,050.6 km
Apogee: 35,523.3 km
Inclination: 16.2 °
Period: 783.7 minutes
Semi major axis: 28157 km
RCS: 9.602 m2 (large)
Launch date: December 29, 2002
Source: Commonwealth of Independent States (former USSR) (CIS)
Launch site: TYURATAM MISSILE AND SPACE COMPLEX (TTMTR)

Note: This is a ROCKET BODY
aabbcc
Your satellite tracking list
Your tracking list is empty




NASA's NSSDC Master Catalog

Two Line Element Set (TLE):
1 27633U 02062B   18049.56246366 -.00000104 +00000-0 +00000-0 0  9997
2 27633 016.1549 294.8144 4878317 255.6398 004.0839 01.83739212101627
Source of the keplerian elements: AFSPC